Location: Detroit
(42.3310°N, 83.0460°W)
Time: 10:25:39
(UTC-05:00)

Transit 2A - Visible Passes

Search period start: 27 January 2023 00:00
Search period end: 06 February 2023 00:00
Orbit: 594 x 962 km, 66.7° (Epoch: 27 January)

Date Brightness Start Highest point End Pass type
(mag) Time Alt. Az. Time Alt. Az. Time Alt. Az.
27 Jan 8.9 04:11:57 12° SE 04:11:57 12° SE 04:12:17 10° SE visible
27 Jan 8.4 05:52:30 12° SSW 05:52:30 12° SSW 05:53:11 10° SSW visible
27 Jan 6.1 18:40:44 10° S 18:45:12 47° ESE 18:49:35 13° NE visible
27 Jan 7.8 20:24:38 10° W 20:28:40 25° NW 20:30:06 22° NNW visible
28 Jan 6.7 18:06:46 10° S 18:10:52 31° ESE 18:15:22 10° NE visible
28 Jan 7.3 19:49:32 10° WSW 19:53:56 35° NW 19:57:16 18° N visible
29 Jan 6.7 19:14:39 10° SW 19:19:17 49° NW 19:24:20 11° NNE visible
29 Jan 8.7 21:02:30 10° NW 21:03:57 11° NNW 21:04:50 11° NNW visible
30 Jan 6.1 18:39:58 10° SW 18:44:42 72° WNW 18:50:00 10° NNE visible
30 Jan 8.5 20:26:15 10° WNW 20:29:00 14° NW 20:31:47 10° N visible
31 Jan 5.9 18:05:30 10° SSW 18:10:12 77° ESE 18:15:28 10° NNE visible
31 Jan 8.2 19:50:36 10° W 19:54:06 19° NW 19:57:52 10° N visible
01 Feb 7.9 19:15:14 10° W 19:19:17 25° NW 19:23:42 10° N visible
02 Feb 7.4 18:40:07 10° WSW 18:44:33 34° NW 18:49:26 10° NNE visible
03 Feb 8.7 19:53:09 10° NW 19:54:35 11° NNW 19:56:03 10° NNW visible
04 Feb 8.5 19:16:52 10° WNW 19:19:36 14° NW 19:22:29 10° N visible
05 Feb 8.3 18:41:11 10° W 18:44:42 18° NW 18:48:28 10° N visible
